Flag Weather past 2 weeks in Lexington-Fayette, Kentucky, U.S.A.

Now
32 °F

Clear.


Feels Like: 26 °F
Forecast: 20 / 37 °F
Wind: 7 mph from Southeast

Location: Blue Grass Airport

Current Time: Nov 28, 2014 at 6:30:25 PM

Latest Report: Nov 28, 2014 at 5:54 PM


Visibility: 10 mi

Pressure: 30.23 "Hg

Humidity: 56%

Dew point: 18 °F

Location of Lexington-FayetteLocation

Historic Weather in Lexington-Fayette — Graph

°F

Lexington-Fayette temperature yesterday

Maximum temperature yesterday: 34 °F (at 1:54 PM)
Minimum temperature yesterday: 27 °F (at 10:54 PM)
Average temperature yesterday: 30 °F

Past Weeks' High & Low Weather Summary

 TemperatureHumidityPressure
High62 °F (Nov 22, 1:54 PM)100% (Nov 16, 8:54 PM)30.54 "Hg (Nov 16, 8:54 PM)
Low12 °F (Nov 18, 6:54 AM)30% (Nov 21, 3:54 PM)29.34 "Hg (Nov 23, 10:54 PM)
Average34 °F70%30.15 "Hg
* Reported Nov 13 4:54 PM — Nov 28 4:54 PM, Lexington-Fayette, Weather by CustomWeather, © 2014

Note: Actual official high and low records may vary slightly from our data, if they occured in-between our weather recording intervals... More about our weather records

Advertising

Lexington-Fayette weather history for previous 24 hours

 ConditionsComfort  
Time TempWeatherWind HumidityBarometerVisibility
4:54 PM
Nov 28
35 °FSunny.10 mph50%30.24 "Hg10 mi
3:54 PM36 °FSunny.14 mph46%30.26 "Hg10 mi
2:54 PM35 °FPartly sunny.13 mph46%30.29 "Hg10 mi
1:54 PM33 °FPartly sunny.10 mph52%30.30 "Hg10 mi
12:54 PM31 °FSunny.12 mph57%30.35 "Hg10 mi
11:54 AM31 °FOvercast.9 mph59%30.39 "Hg10 mi
10:54 AM30 °FSunny.12 mph61%30.42 "Hg10 mi
9:54 AM28 °FPassing clouds.8 mph69%30.43 "Hg10 mi
8:54 AM26 °FOvercast.6 mph77%30.44 "Hg10 mi
7:54 AM25 °FOvercast.3 mph81%30.44 "Hg10 mi
6:54 AM25 °FOvercast.5 mph85%30.43 "Hg9 mi
5:54 AM25 °FOvercast.7 mph85%30.45 "Hg10 mi
4:54 AM24 °FPassing clouds.5 mph77%30.42 "Hg10 mi
3:54 AM27 °FOvercast.7 mph75%30.42 "Hg10 mi
2:54 AM27 °FOvercast.5 mph72%30.41 "Hg10 mi
1:54 AM27 °FOvercast.6 mph66%30.42 "Hg10 mi
12:54 AM27 °FOvercast.8 mph63%30.42 "Hg10 mi
11:54 PM
Nov 27
27 °FOvercast.8 mph66%30.42 "Hg10 mi
10:54 PM27 °FOvercast.7 mph72%30.43 "Hg10 mi
9:54 PM28 °FOvercast.8 mph69%30.44 "Hg10 mi
8:54 PM28 °FOvercast.10 mph75%30.43 "Hg9 mi
7:54 PM30 °FOvercast.12 mph72%30.41 "Hg10 mi
6:54 PM30 °FOvercast.16 mph72%30.40 "Hg10 mi
Weather by CustomWeather, © 2014

See weather overviewHow to use our weather pages